Rocky Mount, NC

1:55 AM EDT on September 26, 2017 (GMT -0400)
Rocky Mount-Wilson Regional

Weather History for KRWI - October, 2014

Change the Weather History Date:

Tuesday, October 28, 2014

  Actual Average Record
Temperature  
Mean Temperature 64 °F -  
Max Temperature 82 °F 69 °F 87 °F (1984)
Min Temperature 45 °F 46 °F 28 °F (1961)
Degree Days  
Heating Degree Days 2    
Growing Degree Days 14 (Base 50)    
Moisture  
Dew Point 53 °F    
Average Humidity 73    
Maximum Humidity 93    
Minimum Humidity 39    
Precipitation  
Precipitation 0.00 in - - ()
Sea Level Pressure  
Sea Level Pressure 30.10 in    
Wind  
Wind Speed 3 mph (South)    
Max Wind Speed 10 mph    
Max Gust Speed -    
Visibility 10 miles    
Events      
Averages and records for this station are not official NWS values.
T = Trace of Precipitation, MM = Missing Value Source: NWS Daily Summary

Daily Weather History Graph

Daily Weather History Graph

Search for Another Location

Airport or City:

Trip Planner

Search our weather history database for the weather conditions in past years. The results will help you decide how hot, cold, wet, or windy it might be!

Date:

Astronomy

Oct. 28, 2014 Rise Set
Actual Time 7:29 AM EDT 6:20 PM EDT
Civil Twilight 7:03 AM EDT 6:46 PM EDT
Nautical Twilight 6:33 AM EDT 7:16 PM EDT
Astronomical Twilight 6:03 AM EDT 7:46 PM EDT
Moon 11:54 AM EDT (10/28) 10:27 PM EDT (10/28)
Length of Visible Light 11h 42m
Length of Day
10h 50m
Waxing Crescent, 24% of the Moon is Illuminated
Oct 28
Waxing Crescent
Oct 30
First Quarter
Nov 6
Full
Nov 14
Last Quarter
Nov 22
New

Hourly Weather History & Observations

Time (EDT) Temp. Heat Index Dew Point Humidity Pressure Visibility Wind Dir Wind Speed Gust Speed Precip Events Conditions
12:53 AM 46.9 °F - 44.1 °F 90% 30.11 in 10.0 mi Calm Calm - N/A   Clear
1:53 AM 46.9 °F - 44.1 °F 90% 30.11 in 10.0 mi Calm Calm - N/A   Clear
2:53 AM 48.0 °F - 44.1 °F 86% 30.12 in 10.0 mi Calm Calm - N/A   Clear
3:53 AM 46.9 °F - 44.1 °F 90% 30.12 in 10.0 mi Calm Calm - N/A   Clear
4:53 AM 46.9 °F - 44.1 °F 90% 30.13 in 10.0 mi Calm Calm - N/A   Clear
5:53 AM 46.9 °F - 44.1 °F 90% 30.14 in 10.0 mi Calm Calm - N/A   Clear
6:53 AM 45.0 °F - 43.0 °F 93% 30.15 in 10.0 mi Calm Calm - N/A   Clear
7:53 AM 46.0 °F - 44.1 °F 93% 30.15 in 10.0 mi Calm Calm - N/A   Clear
8:53 AM 55.0 °F - 50.0 °F 83% 30.17 in 10.0 mi South 3.5 mph - N/A   Clear
9:53 AM 64.0 °F - 57.0 °F 78% 30.16 in 10.0 mi SSW 8.1 mph - N/A   Clear
10:53 AM 70.0 °F - 60.1 °F 71% 30.15 in 10.0 mi SSW 6.9 mph - N/A   Clear
11:53 AM 75.0 °F - 61.0 °F 62% 30.14 in 10.0 mi SSW 6.9 mph - N/A   Clear
12:53 PM 79.0 °F - 60.1 °F 52% 30.11 in 10.0 mi South 9.2 mph - N/A   Clear
1:53 PM 82.0 °F 82.0 °F 57.9 °F 44% 30.09 in 10.0 mi SSW 10.4 mph - N/A   Clear
2:53 PM 82.9 °F 82.4 °F 57.0 °F 41% 30.07 in 10.0 mi South 10.4 mph - N/A   Clear
3:53 PM 82.9 °F 82.1 °F 55.9 °F 39% 30.06 in 10.0 mi SW 10.4 mph - N/A   Clear
4:53 PM 81.0 °F 81.1 °F 57.9 °F 45% 30.05 in 10.0 mi SSW 8.1 mph - N/A   Clear
5:53 PM 75.0 °F - 57.9 °F 55% 30.05 in 10.0 mi South 4.6 mph - N/A   Clear
6:53 PM 66.0 °F - 59.0 °F 78% 30.06 in 10.0 mi Calm Calm - N/A   Clear
7:53 PM 66.0 °F - 59.0 °F 78% 30.06 in 10.0 mi South 4.6 mph - N/A   Clear
8:53 PM 64.0 °F - 57.9 °F 80% 30.06 in 10.0 mi South 5.8 mph - N/A   Clear
9:53 PM 68.0 °F - 57.9 °F 70% 30.06 in 10.0 mi South 5.8 mph - N/A   Clear
10:53 PM 66.9 °F - 59.0 °F 76% 30.05 in 10.0 mi South 6.9 mph - N/A   Clear
11:53 PM 66.0 °F - 60.1 °F 81% 30.04 in 10.0 mi South 6.9 mph - N/A   Clear